Hourly Data Report for January 23, 2021

TORONTO CITY
ONTARIO
Current Station Operator: ECCC - MSC

43°40'00.000" N
79°24'00.000" W
112.50 m
6158355
71508
XTO

Download Data

Hourly Data (January 2021)
Hourly Data Report for January 23, 2021
TIME
LST
Temp Definition
°C
Dew Point Definition
°C
Rel Hum Definition
%
Precip. Amount Definition
mm

Wind Dir Definition
10's deg

Wind Spd Definition
km/h
Visibility Definition
km
Stn Press Definition
kPa
Hmdx Definition


Wind Chill Definition


Weather Definition


00:00 -5.8 -12.4 60 0.0       100.28     LegendNANA
01:00 -6.4 -12.7 61 0.0       100.31     LegendNANA
02:00 -7.5 -12.7 66 0.0       100.42     LegendNANA
03:00 -8.5 -14.5 62 0.0       100.53     LegendNANA
04:00 -8.8 -13.3 69 0.0       100.56     LegendNANA
05:00 -9.5 -14.5 67 0.0       100.63     LegendNANA
06:00 -9.9 -14.9 67 0.0       100.73     LegendNANA
07:00 -10.3 -15.4 66 0.0       100.82     LegendNANA
08:00 -10.3 -14.8 70 0.0       100.90     LegendNANA
09:00 -9.7 -15.1 65 0.0       100.99     LegendNANA
10:00 -8.0 -14.2 61 0.0       101.05     LegendNANA
11:00 -7.1 -14.7 55 0.0       101.07     LegendNANA
12:00 -5.2 -14.3 49 0.0       101.05     LegendNANA
13:00 -4.6 -14.7 45 0.0       101.07     LegendNANA
14:00 -4.2 -14.8 43 0.0       101.10     LegendNANA
15:00 -4.9 -14.7 46 0.0       101.14     LegendNANA
16:00 -5.1 -15.0 45 0.0       101.18     LegendNANA
17:00 -5.4 -14.8 48 0.0       101.26     LegendNANA
18:00 -5.9 -14.4 51 0.0       101.30     LegendNANA
19:00 -5.6 -15.5 46 0.0       101.34     LegendNANA
20:00 -5.4 -15.4 45 0.0       101.36     LegendNANA
21:00 -5.5 -14.6 49 0.0       101.37     LegendNANA
22:00 -5.5 -13.6 53 0.0       101.37     LegendNANA
23:00 -5.7 -13.1 56 0.0       101.37     LegendNANA

Notes on Data Quality.

Legend

  • E = Estimated
  • M = Missing
  • NA = Not Available*
  • [empty] = Indicates an unobserved value
Date modified: